QTR68V OTHH-DGAA

Flight info

Callsign QTR68V
Flight time N/A
Altitude 30000
Route ULIKA M430 KSA G782 RGB M309 VEMEM/N0497F320 G782 JDW M863 KITOB UM863 FL UG660 MIU UG626 POSIB/N0490F340 UG626 JOS UJ332 GURAP UH340 LAG UL433 EREKA EREKA1B
Aircraft B77W/H-SDE1E2E3FGHIJ2J3J4J5M1RWXY/LB1D1

Departure

Time 2026-05-07 07:15
Airport Hamad International Airport (OTHH)

Arrival

Time N/A
Airport Kotoka International Airport (DGAA)
Time Latitude Longitude Altitude Speed Heading
2026-05-07 06:51 25.26399 51.61134 27 ft 0 kts 72°
2026-05-07 07:05 25.26394 51.61116 27 ft 4 kts 73°
2026-05-07 07:06 25.26386 51.61088 27 ft 4 kts 68°
2026-05-07 07:06 25.26376 51.61062 27 ft 4 kts 79°
2026-05-07 07:06 25.26377 51.61045 27 ft 4 kts 110°
2026-05-07 07:06 25.26388 51.61024 27 ft 4 kts 143°
2026-05-07 07:07 25.26410 51.61012 27 ft 4 kts 161°
2026-05-07 07:07 25.26424 51.61006 27 ft 1 kts 158°
2026-05-07 07:07 25.26425 51.61006 27 ft 0 kts 158°
2026-05-07 07:10 25.26397 51.61018 27 ft 8 kts 158°
2026-05-07 07:10 25.26338 51.61044 27 ft 9 kts 158°
2026-05-07 07:10 25.26276 51.61067 27 ft 10 kts 172°
2026-05-07 07:10 25.26220 51.61032 27 ft 10 kts 239°
2026-05-07 07:11 25.26191 51.60958 27 ft 11 kts 248°
2026-05-07 07:11 25.26159 51.60873 27 ft 13 kts 248°
2026-05-07 07:11 25.26119 51.60767 27 ft 14 kts 242°
2026-05-07 07:11 25.26036 51.60742 27 ft 14 kts 153°
2026-05-07 07:12 25.25947 51.60783 27 ft 14 kts 159°
2026-05-07 07:12 25.25856 51.60822 27 ft 14 kts 158°
2026-05-07 07:12 25.25766 51.60862 27 ft 14 kts 158°
2026-05-07 07:12 25.25676 51.60859 27 ft 14 kts 222°
2026-05-07 07:13 25.25630 51.60765 27 ft 14 kts 248°
2026-05-07 07:13 25.25594 51.60664 27 ft 14 kts 250°
2026-05-07 07:13 25.25567 51.60561 31 ft 14 kts 274°
2026-05-07 07:13 25.25636 51.60490 28 ft 14 kts 339°
2026-05-07 07:14 25.25790 51.60425 28 ft 45 kts 339°
2026-05-07 07:14 25.26294 51.60207 28 ft 110 kts 339°
2026-05-07 07:14 25.27188 51.59816 27 ft 164 kts 338°
2026-05-07 07:14 25.28397 51.59311 41 ft 204 kts 341°
2026-05-07 07:15 25.29704 51.58771 589 ft 199 kts 339°
2026-05-07 07:15 25.31000 51.58189 1103 ft 202 kts 339°
2026-05-07 07:15 25.32301 51.57600 1640 ft 203 kts 339°
2026-05-07 07:15 25.33664 51.56984 1815 ft 221 kts 339°
2026-05-07 07:16 25.35144 51.56320 1995 ft 239 kts 339°
2026-05-07 07:16 25.36710 51.55614 2357 ft 250 kts 338°
2026-05-07 07:16 25.38372 51.54863 2797 ft 263 kts 336°
2026-05-07 07:16 25.40081 51.54095 3304 ft 268 kts 339°
2026-05-07 07:17 25.41822 51.53326 3822 ft 268 kts 339°
2026-05-07 07:17 25.43555 51.52559 4245 ft 268 kts 339°
2026-05-07 07:17 25.45293 51.51796 4850 ft 271 kts 339°
2026-05-07 07:17 25.46983 51.50872 5335 ft 274 kts 320°
2026-05-07 07:18 25.48122 51.49185 5827 ft 280 kts 290°
2026-05-07 07:18 25.48416 51.47040 6293 ft 285 kts 269°
2026-05-07 07:18 25.48321 51.44831 6742 ft 290 kts 269°
2026-05-07 07:18 25.48211 51.42596 7297 ft 290 kts 268°
2026-05-07 07:19 25.48136 51.41118 7659 ft 290 kts 269°
2026-05-07 07:19 25.47865 51.38407 8128 ft 295 kts 253°
2026-05-07 07:19 25.47218 51.36235 8530 ft 299 kts 253°
2026-05-07 07:19 25.46585 51.34046 9100 ft 298 kts 253°
2026-05-07 07:20 25.45951 51.31845 9591 ft 302 kts 253°
2026-05-07 07:20 25.45307 51.29619 10078 ft 305 kts 253°
2026-05-07 07:20 25.44652 51.27347 10388 ft 318 kts 253°
2026-05-07 07:20 25.43959 51.24955 10525 ft 335 kts 253°
2026-05-07 07:21 25.43224 51.22430 10661 ft 353 kts 253°
2026-05-07 07:21 25.42719 51.20692 10762 ft 365 kts 253°
2026-05-07 07:21 25.41920 51.17957 10929 ft 381 kts 252°
2026-05-07 07:21 25.41095 51.15126 11330 ft 391 kts 252°
2026-05-07 07:22 25.40257 51.12241 11904 ft 396 kts 252°
2026-05-07 07:22 25.39405 51.09314 12553 ft 400 kts 252°
2026-05-07 07:22 25.38549 51.06379 13277 ft 402 kts 252°
2026-05-07 07:22 25.37686 51.03429 14003 ft 404 kts 252°
2026-05-07 07:23 25.36819 51.00459 14649 ft 407 kts 252°
2026-05-07 07:23 25.35945 50.97475 15291 ft 410 kts 251°
2026-05-07 07:23 25.35062 50.94469 15918 ft 413 kts 251°
2026-05-07 07:23 25.34173 50.91440 16561 ft 416 kts 251°
2026-05-07 07:24 25.33287 50.88424 17187 ft 418 kts 251°
2026-05-07 07:24 25.32374 50.85317 17799 ft 420 kts 251°
2026-05-07 07:24 25.31482 50.82278 18374 ft 423 kts 251°
2026-05-07 07:24 25.30569 50.79175 18960 ft 426 kts 251°
2026-05-07 07:25 25.28726 50.72922 20082 ft 430 kts 251°
2026-05-07 07:25 25.27795 50.69767 20591 ft 433 kts 251°
2026-05-07 07:25 25.26946 50.66568 21104 ft 436 kts 256°
2026-05-07 07:26 25.26402 50.63268 21618 ft 439 kts 262°
2026-05-07 07:26 25.26149 50.59894 22094 ft 442 kts 268°
2026-05-07 07:26 25.26129 50.56492 22559 ft 444 kts 269°
2026-05-07 07:26 25.26115 50.53071 23008 ft 446 kts 268°
2026-05-07 07:27 25.26092 50.49630 23466 ft 449 kts 269°
2026-05-07 07:27 25.26133 50.46175 23906 ft 451 kts 270°
2026-05-07 07:27 25.26214 50.42707 24343 ft 452 kts 270°
2026-05-07 07:27 25.26305 50.39229 24781 ft 453 kts 270°
2026-05-07 07:28 25.26393 50.35787 25176 ft 454 kts 270°
2026-05-07 07:28 25.26476 50.32285 25584 ft 456 kts 270°
2026-05-07 07:28 25.26552 50.28783 25973 ft 457 kts 270°
2026-05-07 07:28 25.26623 50.25266 26377 ft 458 kts 269°
2026-05-07 07:29 25.26691 50.21739 26764 ft 459 kts 269°
2026-05-07 07:29 25.26758 50.18207 27127 ft 460 kts 269°
2026-05-07 07:29 25.26822 50.14667 27501 ft 461 kts 269°
2026-05-07 07:29 25.26887 50.11117 27852 ft 462 kts 269°
2026-05-07 07:30 25.26950 50.07561 28151 ft 463 kts 269°
2026-05-07 07:30 25.27014 50.03993 28448 ft 465 kts 269°
2026-05-07 07:30 25.27078 50.00407 28734 ft 466 kts 269°
2026-05-07 07:30 25.27137 49.96991 28990 ft 467 kts 269°
2026-05-07 07:31 25.27154 49.96058 29071 ft 467 kts 268°